Погода в Приупском

Россия / Тульская область     53°54′33″N   37°44′09″E
темп.,
°C
ветер,
м/с
пор.,
м/с
влажн.,
%
обл.,
%
осадки,
мм/ч
давл.,
гПа
погр.,
м
12 мая, ср
ср1200:00+8юв36915 0.0 1026106
03:00+6юв22860 0.0 102614
06:00+7в23871 0.0 102691
09:00+12всв346396 0.0 1025620
12:00+9всв3494100 3.0 1024291
15:00+9юз2495100 7.2 1021230
18:00+9ю128847 1.6 1019215
21:00+7вюв35930 1.6 102085
13 мая, чт
чт1300:00+7в4109582 0.0 1019211
03:00+8в61592100 0.0 1019382
06:00+9вюв51394100 0.0 1019458
09:00+10в4995100 2.3 1018290
12:00+14в5780100 0.1 1016462
15:00+15ююв4777100 1.9 1015717
18:00+14ююз48876 3.8 1015621
21:00+10юз229142 3.8 101614
14 мая, пт
пт1400:00+9юв23910 0.0 101725
03:00+9ююв2292100 0.0 101720
06:00+10вюв3489100 0.0 101777
09:00+16вюв588212 0.0 1016427
12:00+20юв7970100 0.8 10151021
15:00+22ююв71165100 0.9 10131496
18:00+20ююв6127753 3.8 1012581
21:00+17ю41387100 8.6 1012230
15 мая, сб
сб1500:00+16ю239182 1.9 101141
03:00+15ю51593100 2.4 1012396
06:00+14юв51286100 0.6 1010239
09:00+18ююв5976100 0.8 1011561
12:00+20ю5976100 2.6 1010921
15:00+21ю79691 4.6 10091230
18:00+20ююз597330 0.1 1010888
21:00+15ююз410915 0.3 1011238
16 мая, вс
вс1600:00+13юз49965 0.0 1012239
03:00+11зюз37940 0.0 1013132
06:00+12юз37910 0.0 1014177
09:00+17юз47715 0.0 1014593
12:00+20юз576115 0.0 10151505
15:00+21юз56605 0.4 10151436
18:00+20зюз35705 0.1 1015597
21:00+15юз118246 0.1 101511